This is the latest recevied weather packets stored in our database for station/object DC4THF-13. If no packets are shown the sender has not sent any weather packets the latest 10 day(s).
| Time | Temp. | Humidity | Pressure | Rain* | Wind** | Luminosity | Snow |
|---|---|---|---|---|---|---|---|
| 1787657544 | 25° C | 38% | 1010.6 hPa | 0 mm | - | - | - |
| 1787656941 | 25° C | 39% | 1010.8 hPa | 0 mm | - | - | - |
| 1787656338 | 25° C | 39% | 1010.8 hPa | 0 mm | - | - | - |
| 1787655735 | 25° C | 40% | 1011 hPa | 0 mm | - | - | - |
| 1787655132 | 24.44° C | 40% | 1011.2 hPa | 0 mm | - | - | - |
| 1787654589 | 23.89° C | 40% | 1011.3 hPa | 0 mm | - | - | - |
| 1787653987 | 24.44° C | 41% | 1011.5 hPa | 0 mm | - | - | - |
| 1787653383 | 23.89° C | 41% | 1011.7 hPa | 0 mm | - | - | - |
| 1787652781 | 23.33° C | 41% | 1011.8 hPa | 0 mm | - | - | - |
| 1787652178 | 23.89° C | 41% | 1011.9 hPa | 0 mm | - | - | - |
| 1787651574 | 23.89° C | 42% | 1012.2 hPa | 0 mm | - | - | - |
| 1787650972 | 23.33° C | 43% | 1012.4 hPa | 0 mm | - | - | - |
| 1787650369 | 23.33° C | 43% | 1012.4 hPa | 0 mm | - | - | - |
| 1787649766 | 23.33° C | 44% | 1012.4 hPa | 0 mm | - | - | - |
| 1787649163 | 22.78° C | 46% | 1012.7 hPa | 0 mm | - | - | - |
| 1787648560 | 22.78° C | 50% | 1012.7 hPa | 0 mm | - | - | - |
| 1787647957 | 22.22° C | 52% | 1012.9 hPa | 0 mm | - | - | - |
| 1787647354 | 22.22° C | 53% | 1013 hPa | 0 mm | - | - | - |
| 1787646752 | 22.22° C | 55% | 1012.9 hPa | 0 mm | - | - | - |
| 1787646148 | 21.67° C | 55% | 1013.1 hPa | 0 mm | - | - | - |
| 1787645546 | 21.67° C | 58% | 1013.1 hPa | 0 mm | - | - | - |
| 1787644942 | 21.11° C | 59% | 1013 hPa | 0 mm | - | - | - |
| 1787644338 | 20.56° C | 60% | 1013.1 hPa | 0 mm | - | - | - |
| 1787643734 | 20.56° C | 60% | 1013.1 hPa | 0 mm | - | - | - |
| 1787643191 | 21.11° C | 62% | 1013.1 hPa | 0 mm | - | - | - |
* Rain latest hour (hover to see other rain measurements)
** Current wind speed in m/s (hover to see current wind gust speed)